2016-02-28 00:03:10 r, 14.50m,0000000141Hz,0000000000c,0000000.000s, 009.6C,00002195
2016-02-28 00:13:08 r, 14.43m,0000000151Hz,0000000000c,0000000.000s, 009.6C,00002195
2016-02-28 00:23:08 r, 14.34m,0000000163Hz,0000000000c,0000000.000s, 009.6C,00002195
2016-02-28 00:33:11 r, 14.21m,0000000184Hz,0000000000c,0000000.000s, 009.6C,00002195
2016-02-28 00:43:08 r, 14.10m,0000000204Hz,0000000000c,0000000.000s, 009.6C,00002195
2016-02-28 00:53:09 r, 14.02m,0000000219Hz,0000000000c,0000000.000s, 009.6C,00002195
2016-02-28 01:03:09 r, 14.04m,0000000215Hz,0000000000c,0000000.000s, 009.6C,00002195
2016-02-28 01:13:08 r, 14.04m,0000000215Hz,0000000000c,0000000.000s, 009.6C,00002195
2016-02-28 01:23:08 r, 14.06m,0000000211Hz,0000000000c,0000000.000s, 009.3C,00002195
2016-02-28 01:33:10 r, 14.17m,0000000191Hz,0000000000c,0000000.000s, 009.0C,00002195
2016-02-28 01:43:08 r, 14.18m,0000000188Hz,0000000000c,0000000.000s, 009.0C,00002195
2016-02-28 01:53:09 r, 14.36m,0000000161Hz,0000000000c,0000000.000s, 008.7C,00002195
2016-02-28 02:03:10 r, 14.57m,0000000132Hz,0000000000c,0000000.000s, 008.7C,00002195
2016-02-28 02:13:08 r, 14.62m,0000000125Hz,0000003658c,0000000.008s, 008.7C,00002195
2016-02-28 02:23:08 r, 14.73m,0000000113Hz,0000004059c,0000000.009s, 008.3C,00002195
2016-02-28 02:33:10 r, 14.63m,0000000125Hz,0000003682c,0000000.008s, 008.3C,00002195
2016-02-28 02:43:09 r, 14.34m,0000000163Hz,0000000000c,0000000.000s, 008.0C,00002195
2016-02-28 02:53:10 r, 14.43m,0000000151Hz,0000000000c,0000000.000s, 008.0C,00002195
2016-02-28 03:03:09 r, 14.80m,0000000106Hz,0000004324c,0000000.009s, 008.0C,00002195
2016-02-28 03:13:10 r, 15.05m,0000000085Hz,0000005445c,0000000.012s, 007.7C,00002195
2016-02-28 03:23:09 r, 15.20m,0000000074Hz,0000006283c,0000000.014s, 007.7C,00002195
2016-02-28 03:33:09 r, 15.23m,0000000072Hz,0000006408c,0000000.014s, 007.7C,00002195
2016-02-28 03:43:09 r, 15.42m,0000000061Hz,0000007630c,0000000.017s, 007.7C,00002195
2016-02-28 03:53:11 r, 15.62m,0000000050Hz,0000009271c,0000000.020s, 007.4C,00002195
2016-02-28 04:03:09 r, 15.33m,0000000066Hz,0000007052c,0000000.015s, 007.4C,00002195
2016-02-28 04:13:10 r, 15.18m,0000000076Hz,0000006139c,0000000.013s, 007.4C,00002195
2016-02-28 04:23:08 r, 15.31m,0000000066Hz,0000006959c,0000000.015s, 007.4C,00002195
2016-02-28 04:33:09 r, 15.53m,0000000054Hz,0000008532c,0000000.019s, 007.0C,00002195
2016-02-28 04:43:09 r, 15.67m,0000000048Hz,0000009638c,0000000.021s, 007.0C,00002195
2016-02-28 04:53:08 r, 15.71m,0000000046Hz,0000010065c,0000000.022s, 006.7C,00002195
2016-02-28 05:03:08 r, 15.72m,0000000045Hz,0000010172c,0000000.022s, 006.7C,00002195
2016-02-28 05:13:09 r, 15.35m,0000000063Hz,0000007197c,0000000.016s, 006.7C,00002195
2016-02-28 05:23:08 r, 15.37m,0000000063Hz,0000007303c,0000000.016s, 006.7C,00002195
2016-02-28 05:33:11 r, 15.48m,0000000057Hz,0000008088c,0000000.018s, 006.7C,00002195
2016-02-28 05:43:09 r, 15.96m,0000000037Hz,0000012636c,0000000.027s, 006.7C,00002195
2016-02-28 05:53:08 r, 15.89m,0000000039Hz,0000011868c,0000000.026s, 006.7C,00002195
2016-02-28 06:03:09 r, 16.22m,0000000029Hz,0000016096c,0000000.035s, 006.7C,00002195
2016-02-28 06:13:08 r, 15.56m,0000000053Hz,0000008729c,0000000.019s, 006.7C,00002195
2016-02-28 06:23:08 r, 14.60m,0000000129Hz,0000000000c,0000000.000s, 006.7C,00002195
2016-02-28 06:33:09 r, 13.96m,0000000232Hz,0000000000c,0000000.000s, 006.7C,00002195
2016-02-28 06:43:09 r, 12.58m,0000000827Hz,0000000000c,0000000.000s, 006.7C,00002195
2016-02-28 06:53:08 r, 10.45m,0000005908Hz,0000000000c,0000000.000s, 007.0C,00002195
2016-02-28 07:03:10 r, 08.69m,0000029789Hz,0000000000c,0000000.000s, 007.0C,00002195
2016-02-28 07:13:09 r, 07.51m,0000088081Hz,0000000000c,0000000.000s, 007.0C,00002195
2016-02-28 07:23:08 r, 06.63m,0000199612Hz,0000000000c,0000000.000s, 007.0C,00002195
2016-02-28 07:33:11 r, 00.00m,0000433638Hz,0000000000c,0000000.000s, 006.7C,00002195
2016-02-28 07:43:09 r, 00.00m,0000561504Hz,0000000000c,0000000.000s, 007.0C,00002195
2016-02-28 07:53:08 r, 00.00m,0000561426Hz,0000000000c,0000000.000s, 007.0C,00002195
2016-02-28 08:03:11 r, 00.00m,0000561432Hz,0000000000c,0000000.000s, 007.0C,00002195
2016-02-28 08:13:09 r, 00.00m,0000561628Hz,0000000000c,0000000.000s, 007.4C,00002195
2016-02-28 08:23:08 r, 00.00m,0000561706Hz,0000000000c,0000000.000s, 007.7C,00002195
2016-02-28 08:33:08 r, 00.00m,0000561830Hz,0000000000c,0000000.000s, 008.0C,00002195
2016-02-28 08:43:08 r, 00.00m,0000561876Hz,0000000000c,0000000.000s, 008.7C,00002195
2016-02-28 08:53:11 r, 00.00m,0000561857Hz,0000000000c,0000000.000s, 009.0C,00002195
2016-02-28 09:03:09 r, 00.00m,0000561986Hz,0000000000c,0000000.000s, 009.3C,00002195
2016-02-28 09:13:11 r, 00.00m,0000562004Hz,0000000000c,0000000.000s, 009.9C,00002195
2016-02-28 09:23:08 r, 00.00m,0000562210Hz,0000000000c,0000000.000s, 010.3C,00002195
2016-02-28 09:33:09 r, 00.00m,0000562224Hz,0000000000c,0000000.000s, 010.9C,00002195
2016-02-28 09:43:11 r, 00.00m,0000562350Hz,0000000000c,0000000.000s, 011.6C,00002195
2016-02-28 09:53:08 r, 00.00m,0000562125Hz,0000000000c,0000000.000s, 011.2C,00002195
2016-02-28 10:03:11 r, 00.00m,0000562314Hz,0000000000c,0000000.000s, 011.2C,00002195
2016-02-28 10:13:09 r, 00.00m,0000562521Hz,0000000000c,0000000.000s, 012.5C,00002195
2016-02-28 10:23:08 r, 00.00m,0000562503Hz,0000000000c,0000000.000s, 013.2C,00002195
2016-02-28 10:33:08 r, 00.00m,0000562728Hz,0000000000c,0000000.000s, 014.5C,00002195
2016-02-28 10:43:08 r, 00.00m,0000562754Hz,0000000000c,0000000.000s, 014.8C,00002195
2016-02-28 10:53:08 r, 00.00m,0000562758Hz,0000000000c,0000000.000s, 015.4C,00002195
2016-02-28 11:03:09 r, 00.00m,0000562913Hz,0000000000c,0000000.000s, 016.1C,00002195
2016-02-28 11:13:09 r, 00.00m,0000563064Hz,0000000000c,0000000.000s, 016.1C,00002195
2016-02-28 11:23:08 r, 00.00m,0000563006Hz,0000000000c,0000000.000s, 016.4C,00002195
2016-02-28 11:33:10 r, 00.00m,0000563143Hz,0000000000c,0000000.000s, 016.7C,00002195
2016-02-28 11:43:09 r, 00.00m,0000563082Hz,0000000000c,0000000.000s, 016.7C,00002195
2016-02-28 11:53:08 r, 00.00m,0000563200Hz,0000000000c,0000000.000s, 017.4C,00002195
2016-02-28 12:03:08 r, 00.00m,0000563228Hz,0000000000c,0000000.000s, 017.7C,00002195
2016-02-28 12:13:10 r, 00.00m,0000563240Hz,0000000000c,0000000.000s, 018.0C,00002195
2016-02-28 12:23:08 r, 00.00m,0000563316Hz,0000000000c,0000000.000s, 018.3C,00002195
2016-02-28 12:33:09 r, 00.00m,0000563480Hz,0000000000c,0000000.000s, 019.0C,00002195
2016-02-28 12:43:08 r, 00.00m,0000563314Hz,0000000000c,0000000.000s, 018.3C,00002195
2016-02-28 12:53:08 r, 00.00m,0000563241Hz,0000000000c,0000000.000s, 017.7C,00002195
2016-02-28 13:03:09 r, 00.00m,0000563285Hz,0000000000c,0000000.000s, 017.4C,00002195
2016-02-28 13:13:10 r, 00.00m,0000563211Hz,0000000000c,0000000.000s, 017.4C,00002195
2016-02-28 13:23:08 r, 00.00m,0000563059Hz,0000000000c,0000000.000s, 016.7C,00002195
2016-02-28 13:33:09 r, 00.00m,0000563274Hz,0000000000c,0000000.000s, 017.7C,00002195
2016-02-28 13:43:11 r, 00.00m,0000563386Hz,0000000000c,0000000.000s, 018.3C,00002195
2016-02-28 13:53:08 r, 00.00m,0000563347Hz,0000000000c,0000000.000s, 018.6C,00002195
2016-02-28 14:03:11 r, 00.00m,0000563403Hz,0000000000c,0000000.000s, 019.0C,00002195
2016-02-28 14:13:09 r, 00.00m,0000563497Hz,0000000000c,0000000.000s, 019.0C,00002195
2016-02-28 14:23:08 r, 00.00m,0000563447Hz,0000000000c,0000000.000s, 019.3C,00002195
2016-02-28 14:33:08 r, 00.00m,0000563320Hz,0000000000c,0000000.000s, 019.6C,00002195
2016-02-28 14:43:09 r, 00.00m,0000563383Hz,0000000000c,0000000.000s, 019.3C,00002195
2016-02-28 14:53:08 r, 00.00m,0000563338Hz,0000000000c,0000000.000s, 019.3C,00002195
2016-02-28 15:03:11 r, 00.00m,0000563212Hz,0000000000c,0000000.000s, 018.3C,00002195
2016-02-28 15:13:09 r, 00.00m,0000563059Hz,0000000000c,0000000.000s, 017.7C,00002195
2016-02-28 15:23:08 r, 00.00m,0000563152Hz,0000000000c,0000000.000s, 018.3C,00002195
2016-02-28 15:33:09 r, 00.00m,0000563231Hz,0000000000c,0000000.000s, 018.6C,00002195
2016-02-28 15:43:11 r, 00.00m,0000563157Hz,0000000000c,0000000.000s, 018.3C,00002195
2016-02-28 15:53:08 r, 00.00m,0000563057Hz,0000000000c,0000000.000s, 017.7C,00002195
2016-02-28 16:03:08 r, 00.00m,0000562999Hz,0000000000c,0000000.000s, 016.7C,00002195
2016-02-28 16:13:11 r, 00.00m,0000562823Hz,0000000000c,0000000.000s, 016.1C,00002195
2016-02-28 16:23:08 r, 00.00m,0000562644Hz,0000000000c,0000000.000s, 015.7C,00002195
2016-02-28 16:33:09 r, 00.00m,0000562653Hz,0000000000c,0000000.000s, 014.8C,00002195
2016-02-28 16:43:09 r, 00.00m,0000562516Hz,0000000000c,0000000.000s, 014.5C,00002195
2016-02-28 16:53:08 r, 00.00m,0000562509Hz,0000000000c,0000000.000s, 014.5C,00002195
2016-02-28 17:03:11 r, 00.00m,0000562573Hz,0000000000c,0000000.000s, 014.5C,00002195
2016-02-28 17:13:08 r, 00.00m,0000562453Hz,0000000000c,0000000.000s, 014.1C,00002195
2016-02-28 17:23:08 r, 00.00m,0000562454Hz,0000000000c,0000000.000s, 014.1C,00002195
2016-02-28 17:33:08 r, 05.91m,0000386703Hz,0000000000c,0000000.000s, 013.8C,00002195
2016-02-28 17:43:09 r, 06.77m,0000174594Hz,0000000000c,0000000.000s, 013.5C,00002195
2016-02-28 17:53:08 r, 07.41m,0000097037Hz,0000000000c,0000000.000s, 013.8C,00002195
2016-02-28 18:03:09 r, 08.32m,0000041809Hz,0000000000c,0000000.000s, 013.5C,00002195
2016-02-28 18:13:11 r, 09.29m,0000017251Hz,0000000000c,0000000.000s, 013.5C,00002195
2016-02-28 18:23:08 r, 10.72m,0000004589Hz,0000000000c,0000000.000s, 013.5C,00002195
2016-02-28 18:33:11 r, 12.62m,0000000797Hz,0000000000c,0000000.000s, 013.5C,00002195
2016-02-28 18:43:09 r, 14.02m,0000000219Hz,0000000000c,0000000.000s, 013.2C,00002195
2016-02-28 18:53:08 r, 14.60m,0000000127Hz,0000003613c,0000000.008s, 013.5C,00002195
2016-02-28 19:03:08 r, 14.83m,0000000104Hz,0000004457c,0000000.010s, 013.5C,00002195
2016-02-28 19:13:09 r, 15.04m,0000000086Hz,0000005385c,0000000.012s, 013.5C,00002195
2016-02-28 19:23:08 r, 15.08m,0000000082Hz,0000005609c,0000000.012s, 013.8C,00002195
2016-02-28 19:33:08 r, 15.08m,0000000082Hz,0000005606c,0000000.012s, 013.5C,00002195
2016-02-28 19:43:09 r, 14.77m,0000000109Hz,0000004219c,0000000.009s, 013.5C,00002195
2016-02-28 19:53:11 r, 14.76m,0000000109Hz,0000004175c,0000000.009s, 013.2C,00002195
2016-02-28 20:03:08 r, 14.52m,0000000138Hz,0000000000c,0000000.000s, 012.8C,00002195
2016-02-28 20:13:09 r, 13.38m,0000000397Hz,0000000000c,0000000.000s, 012.2C,00002195
2016-02-28 20:23:10 r, 13.36m,0000000403Hz,0000000000c,0000000.000s, 011.9C,00002195
2016-02-28 20:33:08 r, 13.31m,0000000420Hz,0000000000c,0000000.000s, 010.9C,00002195
2016-02-28 20:43:08 r, 13.28m,0000000433Hz,0000000000c,0000000.000s, 010.6C,00002195
2016-02-28 20:53:10 r, 13.25m,0000000447Hz,0000000000c,0000000.000s, 010.3C,00002195
2016-02-28 21:03:08 r, 13.29m,0000000431Hz,0000000000c,0000000.000s, 009.9C,00002195
2016-02-28 21:13:09 r, 13.24m,0000000449Hz,0000000000c,0000000.000s, 009.6C,00002195
2016-02-28 21:23:10 r, 13.29m,0000000430Hz,0000000000c,0000000.000s, 009.3C,00002195
2016-02-28 21:33:08 r, 13.29m,0000000431Hz,0000000000c,0000000.000s, 009.0C,00002195
2016-02-28 21:43:08 r, 13.70m,0000000294Hz,0000000000c,0000000.000s, 008.3C,00002195
2016-02-28 21:53:11 r, 14.06m,0000000211Hz,0000000000c,0000000.000s, 007.7C,00002195
2016-02-28 22:03:08 r, 13.95m,0000000234Hz,0000000000c,0000000.000s, 007.4C,00002195
2016-02-28 22:13:10 r, 14.01m,0000000221Hz,0000000000c,0000000.000s, 006.7C,00002195
2016-02-28 22:23:09 r, 14.31m,0000000168Hz,0000000000c,0000000.000s, 006.4C,00002195
2016-02-28 22:33:09 r, 14.43m,0000000150Hz,0000000000c,0000000.000s, 006.1C,00002195
2016-02-28 22:43:11 r, 14.73m,0000000115Hz,0000004059c,0000000.009s, 005.8C,00002195
2016-02-28 22:53:09 r, 17.21m,0000000012Hz,0000039769c,0000000.086s, 005.8C,00002195
2016-02-28 23:03:09 r, 17.49m,0000000009Hz,0000051540c,0000000.112s, 005.4C,00002195
2016-02-28 23:13:09 r, 17.53m,0000000009Hz,0000053471c,0000000.116s, 005.1C,00002195
2016-02-28 23:23:08 r, 17.51m,0000000009Hz,0000052923c,0000000.115s, 004.8C,00002195
2016-02-28 23:33:08 r, 17.54m,0000000009Hz,0000054032c,0000000.117s, 004.1C,00002195
2016-02-28 23:43:08 r, 17.53m,0000000009Hz,0000053732c,0000000.117s, 004.1C,00002195
2016-02-28 23:53:11 r, 17.53m,0000000008Hz,0000053682c,0000000.116s, 003.8C,00002195
